Location: Chiroubles
(46.1812°N, 4.6660°E)
Time: 19:04:51
(UTC+00:00)

Vanguard 2 - Pass Details

Date: 04 December 2020
Orbit: 553 x 2937 km, 32.9° (Epoch: 16 January)

Event Time Altitude Azimuth Distance (km) Brightness Sun altitude
Rises 05:25:09 0° 199° (SSW) 5,705 11.9 -17.0°
Reaches altitude 10° 05:33:29 10° 168° (SSE) 3,953 11.5 -15.6°
Maximum altitude 05:35:30 11° 157° (SSE) 3,693 11.5 -15.2°
Drops below altitude 10° 05:37:22 10° 145° (SE) 3,561 11.7 -14.9°
Sets 05:43:04 0° 110° (ESE) 3,926 13.2 -14.0°
